This is the latest recevied weather packets stored in our database for station/object WB3IGR. If no packets are shown the sender has not sent any weather packets the latest 10 day(s).
| Time | Temp. | Humidity | Pressure | Rain* | Wind** | Luminosity | Snow |
|---|---|---|---|---|---|---|---|
| 1777913115 | 20.56° C | 43% | 1013.7 hPa | 0 mm | - | 669 W/m² | - |
| 1777912812 | 20° C | 45% | 1013.8 hPa | 0 mm | - | 710 W/m² | - |
| 1777912508 | 20° C | 46% | 1013.5 hPa | 0 mm | - | 736 W/m² | - |
| 1777912205 | 20° C | 48% | 1013.7 hPa | 0 mm | - | 723 W/m² | - |
| 1777911901 | 20° C | 46% | 1013.7 hPa | 0 mm | - | 724 W/m² | - |
| 1777911597 | 19.44° C | 48% | 1013.7 hPa | 0 mm | - | 721 W/m² | - |
| 1777911293 | 20° C | 46% | 1013.9 hPa | 0 mm | - | 720 W/m² | - |
| 1777910990 | 19.44° C | 46% | 1014 hPa | 0 mm | - | 703 W/m² | - |
| 1777910689 | 19.44° C | 46% | 1014.1 hPa | 0 mm | - | 697 W/m² | - |
| 1777910384 | 18.89° C | 46% | 1014 hPa | 0 mm | - | 692 W/m² | - |
| 1777910081 | 18.89° C | 46% | 1014.3 hPa | 0 mm | - | 688 W/m² | - |
| 1777909779 | 18.89° C | 46% | 1014.3 hPa | 0 mm | - | 686 W/m² | - |
| 1777909475 | 18.33° C | 48% | 1014.1 hPa | 0 mm | - | 691 W/m² | - |
| 1777909173 | 18.33° C | 47% | 1014.3 hPa | 0 mm | - | 689 W/m² | - |
| 1777908871 | 18.33° C | 46% | 1014.4 hPa | 0 mm | - | 679 W/m² | - |
| 1777908568 | 18.33° C | 48% | 1014.4 hPa | 0 mm | - | 673 W/m² | - |
| 1777908265 | 18.33° C | 46% | 1014.4 hPa | 0 mm | - | 658 W/m² | - |
| 1777907961 | 18.33° C | 48% | 1014.7 hPa | 0 mm | - | 653 W/m² | - |
| 1777907656 | 18.33° C | 47% | 1014.6 hPa | 0 mm | - | 667 W/m² | - |
| 1777907352 | 17.78° C | 48% | 1014.6 hPa | 0 mm | - | 661 W/m² | - |
| 1777907049 | 17.22° C | 50% | 1014.8 hPa | 0 mm | - | 650 W/m² | - |
| 1777906747 | 17.22° C | 49% | 1015 hPa | 0 mm | - | 655 W/m² | - |
| 1777906443 | 17.22° C | 50% | 1014.7 hPa | 0 mm | - | 664 W/m² | - |
| 1777906140 | 17.22° C | 50% | 1014.8 hPa | 0 mm | - | 666 W/m² | - |
| 1777905836 | 16.67° C | 48% | 1014.8 hPa | 0 mm | - | 643 W/m² | - |
* Rain latest hour (hover to see other rain measurements)
** Current wind speed in m/s (hover to see current wind gust speed)